AMC-6

Last updated on Thu Nov 21 2024 00:02:40 GMT+0000 (Coordinated Universal Time)

1 26580U 00067A 24325.48237568 .00000093 00000+0 00000+0 0 9993 2 26580 0.0731 81.5209 0000373 109.7633 264.0678 1.00379967 88237
UTC large
Height (km)
Speed (km/s)
/
Latitude / Longitude
Inclination (degrees)
Orbital Period (minutes)
Azimuth
Elevation
Range (km)
Doppler Factor

Next 0 passes for location: London (51.5072 / 0.1276)

Sorry there are no passes over London.